Location: Most
(50.5133°N, 13.6207°E)
Time: 21:30:36
(UTC+02:00)

ISS - Pass Details

Date: 19 September 2024
Orbit: 412 x 424 km, 51.6° (Epoch: 09 October)

Event Time Altitude Azimuth Distance (km) Brightness Sun altitude
Rises 21:14:22 0° 277° (W) 2,376 1.3 -19.9°
Reaches altitude 10° 21:16:28 10° 279° (W) 1,515 0.1 -20.2°
Enters shadow 21:19:51 73° 3° (N) 451 -3.7 -20.6°
